Time,TemperatureF,DewpointF,PressureIn,WindDirection,WindDirectionDegrees,WindSpeedMPH,WindSpeedGustMPH,Humidity,HourlyPrecipIn,Conditions,Clouds,dailyrainin,SoftwareType,DateUTC
2013-03-13 00:00:00,30.3,27.5,29.96,SSW,201,1.0,8.0,89,0.00,,---,0.00,VWS V14.01,2013-03-13 04:00:00,
2013-03-13 00:05:00,30.4,27.5,29.97,West,269,5.0,7.0,89,0.00,,---,0.00,VWS V14.01,2013-03-13 04:05:00,
2013-03-13 00:10:00,30.5,27.4,29.97,WNW,300,3.0,8.0,88,0.00,,---,0.00,VWS V14.01,2013-03-13 04:10:00,
2013-03-13 00:15:00,30.6,27.5,29.97,SW,232,5.0,8.0,88,0.00,,---,0.00,VWS V14.01,2013-03-13 04:15:00,
2013-03-13 00:20:00,30.6,27.2,29.97,SW,221,3.0,8.0,87,0.00,,---,0.00,VWS V14.01,2013-03-13 04:20:00,
2013-03-13 00:25:00,30.7,27.0,29.97,WNW,300,2.0,8.0,86,0.00,,---,0.00,VWS V14.01,2013-03-13 04:25:00,
2013-03-13 00:30:00,30.7,27.0,29.97,SW,226,2.0,9.0,86,0.00,,---,0.00,VWS V14.01,2013-03-13 04:30:00,
2013-03-13 00:35:00,30.8,26.8,29.97,West,262,6.0,11.0,85,0.00,,---,0.00,VWS V14.01,2013-03-13 04:35:00,
2013-03-13 00:40:00,30.8,26.8,29.96,SW,229,7.0,11.0,85,0.00,,---,0.00,VWS V14.01,2013-03-13 04:40:00,
2013-03-13 00:45:00,30.7,26.7,29.96,WSW,247,5.0,11.0,85,0.00,,---,0.00,VWS V14.01,2013-03-13 04:45:00,
2013-03-13 00:50:00,30.7,26.7,29.96,West,266,3.0,11.0,85,0.00,,---,0.00,VWS V14.01,2013-03-13 04:50:00,
2013-03-13 00:55:00,30.5,26.5,29.96,SSW,205,3.0,11.0,85,0.00,,---,0.00,VWS V14.01,2013-03-13 04:55:00,
2013-03-13 01:00:00,30.4,26.4,29.96,West,269,3.0,11.0,85,0.00,,---,0.00,VWS V14.01,2013-03-13 05:00:00,
2013-03-13 01:05:00,30.1,26.1,29.96,SW,215,3.0,6.0,85,0.00,,---,0.00,VWS V14.01,2013-03-13 05:05:00,
2013-03-13 01:10:00,29.9,26.2,29.96,SW,231,3.0,8.0,86,0.00,,---,0.00,VWS V14.01,2013-03-13 05:10:00,
2013-03-13 01:15:00,29.7,26.0,29.96,West,259,5.0,9.0,86,0.00,,---,0.00,VWS V14.01,2013-03-13 05:15:00,
2013-03-13 01:20:00,29.6,25.9,29.96,WSW,248,0.0,9.0,86,0.00,,---,0.00,VWS V14.01,2013-03-13 05:20:00,
2013-03-13 01:25:00,29.4,25.7,29.96,WSW,253,0.0,9.0,86,0.00,,---,0.00,VWS V14.01,2013-03-13 05:25:00,
2013-03-13 01:30:00,29.3,25.9,29.96,NNE,32,0.0,9.0,87,0.00,,---,0.00,VWS V14.01,2013-03-13 05:30:00,
2013-03-13 01:35:00,29.3,25.9,29.96,South,186,7.0,7.0,87,0.00,,---,0.00,VWS V14.01,2013-03-13 05:35:00,
2013-03-13 01:40:00,29.4,25.5,29.96,West,278,0.0,7.0,85,0.00,,---,0.00,VWS V14.01,2013-03-13 05:40:00,
2013-03-13 01:45:00,29.5,25.3,29.96,WSW,253,9.0,13.0,84,0.00,,---,0.00,VWS V14.01,2013-03-13 05:45:00,
2013-03-13 01:50:00,29.6,25.4,29.96,NW,317,2.0,13.0,84,0.00,,---,0.00,VWS V14.01,2013-03-13 05:50:00,
2013-03-13 01:55:00,29.5,25.8,29.97,NW,316,4.0,13.0,86,0.00,,---,0.00,VWS V14.01,2013-03-13 05:55:00,
2013-03-13 02:00:00,29.0,25.6,29.97,WNW,293,2.0,13.0,87,0.00,,---,0.00,VWS V14.01,2013-03-13 06:00:00,
2013-03-13 02:05:00,28.7,25.3,29.97,West,263,3.0,6.0,87,0.00,,---,0.00,VWS V14.01,2013-03-13 06:05:00,
2013-03-13 02:10:00,28.7,25.3,29.97,WSW,255,4.0,6.0,87,0.00,,---,0.00,VWS V14.01,2013-03-13 06:10:00,
2013-03-13 02:11:00,0.0,0.0,29.96,North,0,0.0,0.0,0,0.00,,---,0.00,VWS V14.01,2013-03-13 06:11:00,
2013-03-13 02:12:00,27.4,22.9,29.96,SW,235,2.0,3.0,83,0.00,,---,0.00,VWS V14.01,2013-03-13 06:12:00,
2013-03-13 02:13:00,27.4,22.9,29.96,WSW,249,5.0,5.0,83,0.00,,---,0.00,VWS V14.01,2013-03-13 06:13:00,
2013-03-13 02:15:00,28.6,25.0,29.97,SW,221,1.0,6.0,86,0.00,,---,0.00,VWS V14.01,2013-03-13 06:15:00,
2013-03-13 02:21:00,28.6,24.7,29.97,WNW,287,3.0,6.0,85,0.00,,---,0.00,VWS V14.01,2013-03-13 06:21:00,
2013-03-13 02:26:00,28.5,24.6,29.96,NW,304,1.0,6.0,85,0.00,,---,0.00,VWS V14.01,2013-03-13 06:26:00,
2013-03-13 02:30:00,28.4,23.9,29.96,WSW,256,1.0,7.0,83,0.00,,---,0.00,VWS V14.01,2013-03-13 06:30:00,
2013-03-13 02:31:00,28.4,23.9,29.97,West,271,6.0,7.0,83,0.00,,---,0.00,VWS V14.01,2013-03-13 06:31:00,
2013-03-13 02:36:00,28.3,23.8,29.97,WSW,242,4.0,8.0,83,0.00,,---,0.00,VWS V14.01,2013-03-13 06:36:00,
2013-03-13 02:41:00,28.0,23.5,29.97,WNW,286,0.0,8.0,83,0.00,,---,0.00,VWS V14.01,2013-03-13 06:41:00,
2013-03-13 02:46:00,27.8,23.3,29.97,SSW,208,2.0,8.0,83,0.00,,---,0.00,VWS V14.01,2013-03-13 06:46:00,
2013-03-13 03:07:00,27.4,22.9,29.97,WSW,248,8.0,8.0,83,0.00,,---,0.00,VWS V14.01,2013-03-13 07:07:00,
2013-03-13 03:12:00,27.3,22.8,29.96,North,5,2.0,3.0,83,0.00,,---,0.00,VWS V14.01,2013-03-13 07:12:00,
2013-03-13 03:17:00,27.1,22.6,29.96,West,273,3.0,9.0,83,0.00,,---,0.00,VWS V14.01,2013-03-13 07:17:00,
2013-03-13 03:22:00,27.0,22.5,29.97,SW,233,0.0,9.0,83,0.00,,---,0.00,VWS V14.01,2013-03-13 07:22:00,
2013-03-13 03:27:00,26.8,22.0,29.97,NW,313,4.0,12.0,82,0.00,,---,0.00,VWS V14.01,2013-03-13 07:27:00,
2013-03-13 03:30:00,26.9,22.1,29.97,WNW,288,6.0,12.0,82,0.00,,---,0.00,VWS V14.01,2013-03-13 07:30:00,
2013-03-13 03:32:00,26.8,22.0,29.97,South,191,0.0,6.0,82,0.00,,---,0.00,VWS V14.01,2013-03-13 07:32:00,
2013-03-13 03:39:00,26.9,21.9,29.96,WNW,294,3.0,3.0,81,0.00,,---,0.00,VWS V14.01,2013-03-13 07:39:00,
2013-03-13 03:44:00,26.7,21.7,29.97,WNW,302,5.0,7.0,81,0.00,,---,0.00,VWS V14.01,2013-03-13 07:44:00,
2013-03-13 03:49:00,26.6,21.6,29.97,WNW,295,0.0,7.0,81,0.00,,---,0.00,VWS V14.01,2013-03-13 07:49:00,
2013-03-13 03:54:00,26.5,21.8,29.97,WNW,285,2.0,7.0,82,0.00,,---,0.00,VWS V14.01,2013-03-13 07:54:00,
2013-03-13 03:59:00,26.4,21.7,29.97,West,277,1.0,7.0,82,0.00,,---,0.00,VWS V14.01,2013-03-13 07:59:00,
2013-03-13 04:04:00,26.3,21.6,29.97,NNW,330,3.0,5.0,82,0.00,,---,0.00,VWS V14.01,2013-03-13 08:04:00,
2013-03-13 04:09:00,26.3,21.6,29.96,WNW,288,1.0,6.0,82,0.00,,---,0.00,VWS V14.01,2013-03-13 08:09:00,
2013-03-13 04:14:00,26.2,21.8,29.97,WNW,283,3.0,6.0,83,0.00,,---,0.00,VWS V14.01,2013-03-13 08:14:00,
2013-03-13 04:19:00,26.3,21.9,29.97,SSW,208,0.0,8.0,83,0.00,,---,0.00,VWS V14.01,2013-03-13 08:19:00,
2013-03-13 04:24:00,26.3,21.9,29.97,WSW,255,1.0,8.0,83,0.00,,---,0.00,VWS V14.01,2013-03-13 08:24:00,
2013-03-13 04:29:00,26.4,22.0,29.97,WSW,239,5.0,8.0,83,0.00,,---,0.00,VWS V14.01,2013-03-13 08:29:00,
2013-03-13 04:30:00,26.5,22.0,29.97,West,266,3.0,9.0,83,0.00,,---,0.00,VWS V14.01,2013-03-13 08:30:00,
2013-03-13 04:34:00,26.6,22.4,29.97,WSW,255,4.0,9.0,84,0.00,,---,0.00,VWS V14.01,2013-03-13 08:34:00,
2013-03-13 04:39:00,26.7,22.2,29.97,SW,233,1.0,9.0,83,0.00,,---,0.00,VWS V14.01,2013-03-13 08:39:00,
2013-03-13 04:44:00,26.7,22.5,29.97,WSW,250,1.0,9.0,84,0.00,,---,0.00,VWS V14.01,2013-03-13 08:44:00,
2013-03-13 04:49:00,26.7,22.5,29.97,SW,222,5.0,9.0,84,0.00,,---,0.00,VWS V14.01,2013-03-13 08:49:00,
2013-03-13 04:54:00,26.7,22.5,29.97,WSW,255,4.0,9.0,84,0.00,,---,0.00,VWS V14.01,2013-03-13 08:54:00,
2013-03-13 04:59:00,26.7,22.5,29.97,WSW,239,4.0,9.0,84,0.00,,---,0.00,VWS V14.01,2013-03-13 08:59:00,
2013-03-13 05:00:00,26.7,22.5,29.97,SSW,198,3.0,11.0,84,0.00,,---,0.00,VWS V14.01,2013-03-13 09:00:00,
2013-03-13 05:04:00,26.6,22.4,29.97,NW,326,1.0,10.0,84,0.00,,---,0.00,VWS V14.01,2013-03-13 09:04:00,
2013-03-13 05:09:00,26.5,22.3,29.97,SW,233,2.0,10.0,84,0.00,,---,0.00,VWS V14.01,2013-03-13 09:09:00,
2013-03-13 05:14:00,26.4,22.5,29.98,WNW,283,3.0,10.0,85,0.00,,---,0.00,VWS V14.01,2013-03-13 09:14:00,
2013-03-13 05:19:00,26.4,22.5,29.98,SSW,194,0.0,10.0,85,0.00,,---,0.00,VWS V14.01,2013-03-13 09:19:00,
2013-03-13 05:24:00,26.3,22.4,29.98,West,274,1.0,10.0,85,0.00,,---,0.00,VWS V14.01,2013-03-13 09:24:00,
2013-03-13 05:29:00,26.3,22.4,29.98,WSW,250,6.0,10.0,85,0.00,,---,0.00,VWS V14.01,2013-03-13 09:29:00,
2013-03-13 05:34:00,26.4,22.5,29.98,West,278,4.0,6.0,85,0.00,,---,0.00,VWS V14.01,2013-03-13 09:34:00,
2013-03-13 05:39:00,26.4,22.2,29.98,WSW,253,2.0,10.0,84,0.00,,---,0.00,VWS V14.01,2013-03-13 09:39:00,
2013-03-13 05:44:00,26.5,22.3,29.99,WSW,248,9.0,10.0,84,0.00,,---,0.00,VWS V14.01,2013-03-13 09:44:00,
2013-03-13 05:49:00,26.5,22.3,29.99,West,270,1.0,10.0,84,0.00,,---,0.00,VWS V14.01,2013-03-13 09:49:00,
2013-03-13 05:54:00,26.5,22.3,29.99,West,262,3.0,11.0,84,0.00,,---,0.00,VWS V14.01,2013-03-13 09:54:00,
2013-03-13 05:59:00,26.5,22.3,29.99,WNW,288,4.0,11.0,84,0.00,,---,0.00,VWS V14.01,2013-03-13 09:59:00,
2013-03-13 06:04:00,26.5,22.3,29.99,WSW,248,1.0,8.0,84,0.00,,---,0.00,VWS V14.01,2013-03-13 10:04:00,
2013-03-13 06:09:00,26.5,22.0,29.99,WSW,257,2.0,10.0,83,0.00,,---,0.00,VWS V14.01,2013-03-13 10:09:00,
2013-03-13 06:14:00,26.5,22.0,29.99,WNW,294,7.0,10.0,83,0.00,,---,0.00,VWS V14.01,2013-03-13 10:14:00,
2013-03-13 06:19:00,26.6,22.1,30.00,SW,228,4.0,10.0,83,0.00,,---,0.00,VWS V14.01,2013-03-13 10:19:00,
2013-03-13 06:24:00,26.6,22.1,30.00,SW,233,4.0,10.0,83,0.00,,---,0.00,VWS V14.01,2013-03-13 10:24:00,
2013-03-13 06:29:00,26.6,22.1,30.00,NW,316,8.0,10.0,83,0.00,,---,0.00,VWS V14.01,2013-03-13 10:29:00,
2013-03-13 06:30:00,26.6,22.1,30.00,WNW,300,6.0,10.0,83,0.00,,---,0.00,VWS V14.01,2013-03-13 10:30:00,
2013-03-13 06:34:00,26.6,22.4,30.00,West,274,4.0,8.0,84,0.00,,---,0.00,VWS V14.01,2013-03-13 10:34:00,
2013-03-13 06:39:00,26.5,22.3,30.00,SW,222,2.0,11.0,84,0.00,,---,0.00,VWS V14.01,2013-03-13 10:39:00,
2013-03-13 06:45:00,26.5,22.3,30.00,West,269,1.0,11.0,84,0.00,,---,0.00,VWS V14.01,2013-03-13 10:45:00,
2013-03-13 06:50:00,26.5,22.3,30.00,WSW,248,4.0,11.0,84,0.00,,---,0.00,VWS V14.01,2013-03-13 10:50:00,
2013-03-13 06:55:00,26.4,22.2,30.01,SSW,210,0.0,12.0,84,0.00,,---,0.00,VWS V14.01,2013-03-13 10:55:00,
2013-03-13 07:00:00,26.4,22.2,30.01,NW,317,2.0,12.0,84,0.00,,---,0.00,VWS V14.01,2013-03-13 11:00:00,
2013-03-13 07:05:00,26.3,21.9,30.01,WNW,282,2.0,11.0,83,0.00,,---,0.00,VWS V14.01,2013-03-13 11:05:00,
2013-03-13 07:10:00,26.3,22.1,30.01,NNE,27,6.0,11.0,84,0.00,,---,0.00,VWS V14.01,2013-03-13 11:10:00,
2013-03-13 07:15:00,26.2,22.0,30.01,WSW,253,0.0,11.0,84,0.00,,---,0.00,VWS V14.01,2013-03-13 11:15:00,
2013-03-13 07:20:00,26.1,21.9,30.01,NW,307,2.0,11.0,84,0.00,,---,0.00,VWS V14.01,2013-03-13 11:20:00,
2013-03-13 07:25:00,26.1,21.9,30.01,WNW,298,2.0,11.0,84,0.00,,---,0.00,VWS V14.01,2013-03-13 11:25:00,
2013-03-13 07:30:00,26.1,21.9,30.02,NW,304,3.0,11.0,84,0.00,,---,0.00,VWS V14.01,2013-03-13 11:30:00,
2013-03-13 07:35:00,26.0,21.8,30.01,West,263,2.0,8.0,84,0.00,,---,0.00,VWS V14.01,2013-03-13 11:35:00,
2013-03-13 07:40:00,25.9,21.7,30.02,WNW,294,3.0,11.0,84,0.00,,---,0.00,VWS V14.01,2013-03-13 11:40:00,
2013-03-13 07:45:00,25.8,21.6,30.02,NW,305,4.0,11.0,84,0.00,,---,0.00,VWS V14.01,2013-03-13 11:45:00,
2013-03-13 07:50:00,25.7,21.5,30.02,West,270,3.0,12.0,84,0.00,,---,0.00,VWS V14.01,2013-03-13 11:50:00,
2013-03-13 07:55:00,25.6,21.7,30.02,WSW,245,0.0,12.0,85,0.00,,---,0.00,VWS V14.01,2013-03-13 11:55:00,
2013-03-13 08:00:00,25.6,21.7,30.02,WSW,248,7.0,12.0,85,0.00,,---,0.00,VWS V14.01,2013-03-13 12:00:00,
2013-03-13 08:05:00,25.6,21.7,30.03,SSW,198,4.0,8.0,85,0.00,,---,0.00,VWS V14.01,2013-03-13 12:05:00,
2013-03-13 08:10:00,25.7,21.8,30.03,NNW,330,2.0,10.0,85,0.00,,---,0.00,VWS V14.01,2013-03-13 12:10:00,
2013-03-13 08:15:00,25.7,21.8,30.03,WNW,288,1.0,10.0,85,0.00,,---,0.00,VWS V14.01,2013-03-13 12:15:00,
2013-03-13 08:20:00,25.7,21.8,30.03,WSW,257,2.0,10.0,85,0.00,,---,0.00,VWS V14.01,2013-03-13 12:20:00,
2013-03-13 08:25:00,25.7,22.1,30.04,WNW,301,2.0,10.0,86,0.00,,---,0.00,VWS V14.01,2013-03-13 12:25:00,
2013-03-13 08:30:00,25.5,22.5,30.04,NW,307,3.0,10.0,88,0.00,,---,0.00,VWS V14.01,2013-03-13 12:30:00,
2013-03-13 08:35:00,25.3,22.5,30.04,NW,308,5.0,7.0,89,0.00,,---,0.00,VWS V14.01,2013-03-13 12:35:00,
2013-03-13 08:40:00,25.2,22.7,30.05,WNW,298,3.0,7.0,90,0.00,,---,0.00,VWS V14.01,2013-03-13 12:40:00,
2013-03-13 08:45:00,25.2,23.0,30.05,WSW,243,4.0,9.0,91,0.00,,---,0.00,VWS V14.01,2013-03-13 12:45:00,
2013-03-13 08:50:00,25.1,22.9,30.05,West,274,2.0,9.0,91,0.00,,---,0.00,VWS V14.01,2013-03-13 12:50:00,
2013-03-13 08:55:00,25.0,22.5,30.05,NNW,339,4.0,9.0,90,0.00,,---,0.00,VWS V14.01,2013-03-13 12:55:00,
2013-03-13 09:00:00,24.9,22.1,30.06,NW,308,6.0,9.0,89,0.00,,---,0.00,VWS V14.01,2013-03-13 13:00:00,
2013-03-13 09:05:00,24.8,21.8,30.06,West,272,10.0,12.0,88,0.00,,---,0.00,VWS V14.01,2013-03-13 13:05:00,
2013-03-13 09:10:00,24.7,21.7,30.06,NNW,330,5.0,12.0,88,0.00,,---,0.00,VWS V14.01,2013-03-13 13:10:00,
2013-03-13 09:15:00,24.7,21.7,30.06,WNW,293,2.0,12.0,88,0.00,,---,0.00,VWS V14.01,2013-03-13 13:15:00,
2013-03-13 09:20:00,24.8,22.0,30.07,NW,312,3.0,12.0,89,0.00,,---,0.00,VWS V14.01,2013-03-13 13:20:00,
2013-03-13 09:25:00,24.8,22.0,30.06,West,271,3.0,12.0,89,0.00,,---,0.00,VWS V14.01,2013-03-13 13:25:00,
2013-03-13 09:30:00,25.0,22.2,30.07,NW,315,5.0,12.0,89,0.00,,---,0.00,VWS V14.01,2013-03-13 13:30:00,
2013-03-13 09:35:00,25.1,22.0,30.07,NW,304,3.0,8.0,88,0.00,,---,0.00,VWS V14.01,2013-03-13 13:35:00,
2013-03-13 09:40:00,25.4,21.8,30.07,WNW,303,7.0,12.0,86,0.00,,---,0.00,VWS V14.01,2013-03-13 13:40:00,
2013-03-13 09:45:00,25.6,21.5,30.08,NW,315,3.0,12.0,84,0.00,,---,0.00,VWS V14.01,2013-03-13 13:45:00,
2013-03-13 09:50:00,25.8,21.4,30.08,NW,306,12.0,12.0,83,0.00,,---,0.00,VWS V14.01,2013-03-13 13:50:00,
2013-03-13 09:55:00,26.0,21.0,30.08,NW,304,4.0,12.0,81,0.00,,---,0.00,VWS V14.01,2013-03-13 13:55:00,
2013-03-13 10:00:00,26.6,21.3,30.08,WNW,301,6.0,12.0,80,0.00,,---,0.00,VWS V14.01,2013-03-13 14:00:00,
2013-03-13 10:05:00,26.9,21.3,30.09,NW,322,4.0,9.0,79,0.00,,---,0.00,VWS V14.01,2013-03-13 14:05:00,
2013-03-13 10:10:00,26.7,20.8,30.09,North,4,7.0,14.0,78,0.00,,---,0.00,VWS V14.01,2013-03-13 14:10:00,
2013-03-13 10:15:00,26.7,21.1,30.09,West,278,8.0,14.0,79,0.00,,---,0.00,VWS V14.01,2013-03-13 14:15:00,
2013-03-13 10:20:00,26.7,21.1,30.09,West,259,5.0,14.0,79,0.00,,---,0.00,VWS V14.01,2013-03-13 14:20:00,
2013-03-13 10:25:00,26.7,20.8,30.09,NNW,328,3.0,14.0,78,0.00,,---,0.00,VWS V14.01,2013-03-13 14:25:00,
2013-03-13 10:30:00,26.9,20.7,30.09,NW,305,5.0,14.0,77,0.00,,---,0.00,VWS V14.01,2013-03-13 14:30:00,
2013-03-13 10:35:00,26.9,20.0,30.09,West,277,5.0,12.0,75,0.00,,---,0.00,VWS V14.01,2013-03-13 14:35:00,
2013-03-13 10:40:00,27.1,20.5,30.10,NW,307,5.0,12.0,76,0.00,,---,0.00,VWS V14.01,2013-03-13 14:40:00,
2013-03-13 10:45:00,27.3,20.8,30.10,West,276,3.0,12.0,76,0.00,,---,0.00,VWS V14.01,2013-03-13 14:45:00,
2013-03-13 10:50:00,27.4,20.8,30.10,NW,323,5.0,13.0,76,0.00,,---,0.00,VWS V14.01,2013-03-13 14:50:00,
2013-03-13 10:55:00,27.5,20.6,30.10,NW,308,5.0,13.0,75,0.00,,---,0.00,VWS V14.01,2013-03-13 14:55:00,
2013-03-13 11:00:00,27.4,20.8,30.10,NNW,328,8.0,13.0,76,0.00,,---,0.00,VWS V14.01,2013-03-13 15:00:00,
2013-03-13 11:05:00,27.6,20.7,30.11,NW,318,7.0,10.0,75,0.00,,---,0.00,VWS V14.01,2013-03-13 15:05:00,
2013-03-13 11:10:00,27.2,20.6,30.11,NW,308,8.0,13.0,76,0.00,,---,0.00,VWS V14.01,2013-03-13 15:10:00,
2013-03-13 11:15:00,27.1,20.5,30.12,West,262,7.0,13.0,76,0.00,,---,0.00,VWS V14.01,2013-03-13 15:15:00,
2013-03-13 11:20:00,27.2,20.3,30.12,NW,304,4.0,13.0,75,0.00,,---,0.00,VWS V14.01,2013-03-13 15:20:00,
2013-03-13 11:26:00,27.2,20.3,30.12,NW,314,4.0,13.0,75,0.00,,---,0.00,VWS V14.01,2013-03-13 15:26:00,
2013-03-13 11:30:00,27.2,20.3,30.12,NW,304,4.0,13.0,75,0.00,,---,0.00,VWS V14.01,2013-03-13 15:30:00,
2013-03-13 11:31:00,27.2,20.6,30.12,NW,309,4.0,4.0,76,0.00,,---,0.00,VWS V14.01,2013-03-13 15:31:00,
2013-03-13 11:36:00,27.5,20.9,30.12,WNW,295,5.0,9.0,76,0.00,,---,0.00,VWS V14.01,2013-03-13 15:36:00,
2013-03-13 11:41:00,27.6,21.0,30.12,NW,318,7.0,13.0,76,0.00,,---,0.00,VWS V14.01,2013-03-13 15:41:00,
2013-03-13 11:46:00,27.7,20.8,30.12,West,263,4.0,13.0,75,0.00,,---,0.00,VWS V14.01,2013-03-13 15:46:00,
2013-03-13 11:51:00,27.8,20.6,30.13,WSW,242,3.0,13.0,74,0.00,,---,0.00,VWS V14.01,2013-03-13 15:51:00,
2013-03-13 11:56:00,28.6,21.1,30.13,West,269,4.0,13.0,73,0.00,,---,0.00,VWS V14.01,2013-03-13 15:56:00,
2013-03-13 12:00:00,28.6,20.7,30.13,West,271,6.0,13.0,72,0.00,,---,0.00,VWS V14.01,2013-03-13 16:00:00,
2013-03-13 12:01:00,28.6,20.7,30.13,NW,323,4.0,6.0,72,0.00,,---,0.00,VWS V14.01,2013-03-13 16:01:00,
2013-03-13 12:06:00,28.5,20.6,30.13,NW,311,11.0,14.0,72,0.00,,---,0.00,VWS V14.01,2013-03-13 16:06:00,
2013-03-13 12:11:00,28.5,20.6,30.13,WNW,283,4.0,18.0,72,0.00,,---,0.00,VWS V14.01,2013-03-13 16:11:00,
2013-03-13 12:16:00,28.5,21.3,30.13,WNW,301,11.0,18.0,74,0.00,,---,0.00,VWS V14.01,2013-03-13 16:16:00,
2013-03-13 12:21:00,28.7,21.5,30.14,WNW,294,2.0,18.0,74,0.00,,---,0.00,VWS V14.01,2013-03-13 16:21:00,
2013-03-13 12:26:00,29.1,21.5,30.13,North,352,8.0,18.0,73,0.00,,---,0.00,VWS V14.01,2013-03-13 16:26:00,
2013-03-13 12:30:00,28.6,20.4,30.14,WNW,291,4.0,18.0,71,0.00,,---,0.00,VWS V14.01,2013-03-13 16:30:00,
2013-03-13 12:31:00,28.5,20.3,30.14,WSW,238,12.0,12.0,71,0.00,,---,0.00,VWS V14.01,2013-03-13 16:31:00,
2013-03-13 12:36:00,28.8,20.6,30.14,WNW,283,4.0,14.0,71,0.00,,---,0.00,VWS V14.01,2013-03-13 16:36:00,
2013-03-13 12:41:00,28.5,20.6,30.14,NNW,340,5.0,14.0,72,0.00,,---,0.00,VWS V14.01,2013-03-13 16:41:00,
2013-03-13 12:46:00,28.1,20.2,30.14,WNW,288,9.0,16.0,72,0.00,,---,0.00,VWS V14.01,2013-03-13 16:46:00,
2013-03-13 12:51:00,28.1,20.9,30.15,West,263,4.0,16.0,74,0.00,,---,0.00,VWS V14.01,2013-03-13 16:51:00,
2013-03-13 12:56:00,28.0,20.2,30.15,WNW,302,9.0,16.0,72,0.00,,---,0.00,VWS V14.01,2013-03-13 16:56:00,
2013-03-13 13:00:00,27.8,20.3,30.15,NW,312,4.0,16.0,73,0.00,,---,0.00,VWS V14.01,2013-03-13 17:00:00,
2013-03-13 13:01:00,27.8,20.3,30.15,NE,37,3.0,5.0,73,0.00,,---,0.00,VWS V14.01,2013-03-13 17:01:00,
2013-03-13 13:07:00,27.8,20.9,30.15,NNW,330,9.0,10.0,75,0.00,,---,0.00,VWS V14.01,2013-03-13 17:07:00,
2013-03-13 13:12:00,27.6,21.0,30.15,NW,305,11.0,12.0,76,0.00,,---,0.00,VWS V14.01,2013-03-13 17:12:00,
2013-03-13 13:17:00,27.8,21.2,30.16,NNW,330,7.0,12.0,76,0.00,,---,0.00,VWS V14.01,2013-03-13 17:17:00,
2013-03-13 13:22:00,28.1,20.6,30.15,WNW,291,5.0,14.0,73,0.00,,---,0.00,VWS V14.01,2013-03-13 17:22:00,
2013-03-13 13:27:00,28.5,21.3,30.15,West,267,5.0,14.0,74,0.00,,---,0.00,VWS V14.01,2013-03-13 17:27:00,
2013-03-13 13:32:00,28.2,20.7,30.16,NNW,330,6.0,13.0,73,0.00,,---,0.00,VWS V14.01,2013-03-13 17:32:00,
2013-03-13 13:37:00,28.0,21.4,30.16,West,274,6.0,13.0,76,0.00,,---,0.00,VWS V14.01,2013-03-13 17:37:00,
2013-03-13 13:42:00,28.1,21.8,30.16,NNW,329,8.0,13.0,77,0.00,,---,0.00,VWS V14.01,2013-03-13 17:42:00,
2013-03-13 13:47:00,28.0,21.4,30.17,WSW,248,1.0,13.0,76,0.00,,---,0.00,VWS V14.01,2013-03-13 17:47:00,
2013-03-13 13:52:00,27.7,21.8,30.17,West,267,7.0,17.0,78,0.00,,---,0.00,VWS V14.01,2013-03-13 17:52:00,
2013-03-13 13:57:00,27.6,22.5,30.17,West,280,10.0,17.0,81,0.00,,---,0.00,VWS V14.01,2013-03-13 17:57:00,
2013-03-13 14:00:00,27.3,22.8,30.17,WSW,240,8.0,17.0,83,0.00,,---,0.00,VWS V14.01,2013-03-13 18:00:00,
2013-03-13 14:02:00,27.3,23.1,30.17,WSW,243,9.0,9.0,84,0.00,,---,0.00,VWS V14.01,2013-03-13 18:02:00,
2013-03-13 14:07:00,27.5,23.0,30.17,West,279,1.0,9.0,83,0.00,,---,0.00,VWS V14.01,2013-03-13 18:07:00,
2013-03-13 14:12:00,27.6,22.8,30.17,SW,225,3.0,9.0,82,0.00,,---,0.00,VWS V14.01,2013-03-13 18:12:00,
2013-03-13 14:17:00,27.1,22.1,30.17,West,278,7.0,11.0,81,0.00,,---,0.00,VWS V14.01,2013-03-13 18:17:00,
2013-03-13 14:22:00,27.2,22.4,30.17,West,280,6.0,11.0,82,0.00,,---,0.00,VWS V14.01,2013-03-13 18:22:00,
2013-03-13 14:27:00,27.3,22.2,30.17,NW,318,10.0,18.0,81,0.00,,---,0.00,VWS V14.01,2013-03-13 18:27:00,
2013-03-13 14:32:00,27.3,21.7,30.18,WNW,301,2.0,7.0,79,0.00,,---,0.00,VWS V14.01,2013-03-13 18:32:00,
2013-03-13 14:37:00,27.3,22.0,30.17,North,354,2.0,13.0,80,0.00,,---,0.00,VWS V14.01,2013-03-13 18:37:00,
2013-03-13 14:42:00,27.5,21.9,30.17,West,274,4.0,13.0,79,0.00,,---,0.00,VWS V14.01,2013-03-13 18:42:00,
2013-03-13 14:47:00,28.1,22.7,30.18,WSW,240,6.0,13.0,80,0.00,,---,0.00,VWS V14.01,2013-03-13 18:47:00,
2013-03-13 14:52:00,28.3,22.0,30.18,West,276,6.0,15.0,77,0.00,,---,0.00,VWS V14.01,2013-03-13 18:52:00,
2013-03-13 14:57:00,28.4,21.5,30.17,NW,307,6.0,15.0,75,0.00,,---,0.00,VWS V14.01,2013-03-13 18:57:00,
2013-03-13 15:02:00,28.5,21.9,30.18,SW,215,4.0,7.0,76,0.00,,---,0.00,VWS V14.01,2013-03-13 19:02:00,
2013-03-13 15:07:00,28.5,21.3,30.18,WSW,256,7.0,12.0,74,0.00,,---,0.00,VWS V14.01,2013-03-13 19:07:00,
2013-03-13 15:12:00,28.7,21.8,30.18,SSW,195,3.0,13.0,75,0.00,,---,0.00,VWS V14.01,2013-03-13 19:12:00,
2013-03-13 15:17:00,29.0,22.4,30.18,WNW,300,6.0,13.0,76,0.00,,---,0.00,VWS V14.01,2013-03-13 19:17:00,
2013-03-13 15:22:00,29.2,22.6,30.18,WNW,295,2.0,18.0,76,0.00,,---,0.00,VWS V14.01,2013-03-13 19:22:00,
2013-03-13 15:28:00,28.9,21.0,30.18,West,278,6.0,18.0,72,0.00,,---,0.00,VWS V14.01,2013-03-13 19:28:00,
2013-03-13 15:30:00,28.7,21.8,30.18,West,259,10.0,18.0,75,0.00,,---,0.00,VWS V14.01,2013-03-13 19:30:00,
2013-03-13 15:33:00,28.6,21.4,30.18,WNW,300,8.0,15.0,74,0.00,,---,0.00,VWS V14.01,2013-03-13 19:33:00,
2013-03-13 15:38:00,28.3,21.4,30.19,WNW,282,3.0,15.0,75,0.00,,---,0.00,VWS V14.01,2013-03-13 19:38:00,
2013-03-13 15:43:00,28.3,21.4,30.19,ESE,110,2.0,15.0,75,0.00,,---,0.00,VWS V14.01,2013-03-13 19:43:00,
2013-03-13 15:48:00,28.7,22.1,30.19,WNW,294,7.0,15.0,76,0.00,,---,0.00,VWS V14.01,2013-03-13 19:48:00,
2013-03-13 15:53:00,29.0,22.1,30.19,WNW,297,3.0,15.0,75,0.00,,---,0.00,VWS V14.01,2013-03-13 19:53:00,
2013-03-13 15:58:00,29.2,21.6,30.19,NNW,345,4.0,16.0,73,0.00,,---,0.00,VWS V14.01,2013-03-13 19:58:00,
2013-03-13 16:03:00,29.3,22.7,30.19,WNW,290,5.0,13.0,76,0.00,,---,0.00,VWS V14.01,2013-03-13 20:03:00,
2013-03-13 16:08:00,29.5,22.2,30.19,WNW,290,15.0,17.0,74,0.00,,---,0.00,VWS V14.01,2013-03-13 20:08:00,
2013-03-13 16:13:00,29.5,22.9,30.19,WNW,290,5.0,17.0,76,0.00,,---,0.00,VWS V14.01,2013-03-13 20:13:00,
2013-03-13 16:18:00,29.2,22.0,30.19,WNW,290,6.0,17.0,74,0.00,,---,0.00,VWS V14.01,2013-03-13 20:18:00,
2013-03-13 16:23:00,29.1,22.2,30.20,WNW,284,3.0,17.0,75,0.00,,---,0.00,VWS V14.01,2013-03-13 20:23:00,
2013-03-13 16:28:00,29.2,21.6,30.20,WNW,291,8.0,17.0,73,0.00,,---,0.00,VWS V14.01,2013-03-13 20:28:00,
2013-03-13 16:33:00,28.7,21.1,30.20,ENE,73,4.0,10.0,73,0.00,,---,0.00,VWS V14.01,2013-03-13 20:33:00,
2013-03-13 16:38:00,28.4,22.1,30.20,NNW,329,6.0,11.0,77,0.00,,---,0.00,VWS V14.01,2013-03-13 20:38:00,
2013-03-13 16:43:00,27.8,22.1,30.21,NW,314,5.0,12.0,79,0.00,,---,0.00,VWS V14.01,2013-03-13 20:43:00,
2013-03-13 16:48:00,28.0,22.0,30.21,WNW,293,7.0,12.0,78,0.00,,---,0.00,VWS V14.01,2013-03-13 20:48:00,
2013-03-13 16:53:00,28.3,22.6,30.21,NNE,14,4.0,12.0,79,0.00,,---,0.00,VWS V14.01,2013-03-13 20:53:00,
2013-03-13 16:58:00,28.0,21.7,30.22,WNW,297,5.0,17.0,77,0.00,,---,0.00,VWS V14.01,2013-03-13 20:58:00,
2013-03-13 17:03:00,27.8,21.5,30.22,NNW,339,8.0,11.0,77,0.00,,---,0.00,VWS V14.01,2013-03-13 21:03:00,
2013-03-13 17:08:00,28.0,21.7,30.22,NNW,329,5.0,11.0,77,0.00,,---,0.00,VWS V14.01,2013-03-13 21:08:00,
2013-03-13 17:13:00,28.2,21.0,30.22,WNW,288,6.0,13.0,74,0.00,,---,0.00,VWS V14.01,2013-03-13 21:13:00,
2013-03-13 17:18:00,28.2,20.4,30.22,NW,316,8.0,19.0,72,0.00,,---,0.00,VWS V14.01,2013-03-13 21:18:00,
2013-03-13 17:23:00,28.2,19.7,30.22,NW,316,5.0,20.0,70,0.00,,---,0.00,VWS V14.01,2013-03-13 21:23:00,
2013-03-13 17:28:00,28.7,19.8,30.22,NW,308,4.0,20.0,69,0.00,,---,0.00,VWS V14.01,2013-03-13 21:28:00,
2013-03-13 17:30:00,28.9,19.3,30.22,NW,304,4.0,20.0,67,0.00,,---,0.00,VWS V14.01,2013-03-13 21:30:00,
2013-03-13 17:33:00,29.2,19.3,30.22,WNW,300,7.0,14.0,66,0.00,,---,0.00,VWS V14.01,2013-03-13 21:33:00,
2013-03-13 17:38:00,29.2,19.3,30.22,NW,311,7.0,14.0,66,0.00,,---,0.00,VWS V14.01,2013-03-13 21:38:00,
2013-03-13 17:44:00,29.1,18.8,30.23,NW,326,3.0,15.0,65,0.00,,---,0.00,VWS V14.01,2013-03-13 21:44:00,
2013-03-13 17:49:00,29.0,18.7,30.23,WNW,302,10.0,15.0,65,0.00,,---,0.00,VWS V14.01,2013-03-13 21:49:00,
2013-03-13 17:54:00,28.6,18.0,30.23,NW,311,8.0,15.0,64,0.00,,---,0.00,VWS V14.01,2013-03-13 21:54:00,
2013-03-13 17:59:00,28.3,18.4,30.23,WSW,257,3.0,17.0,66,0.00,,---,0.00,VWS V14.01,2013-03-13 21:59:00,
2013-03-13 18:00:00,28.2,18.3,30.24,NW,309,7.0,17.0,66,0.00,,---,0.00,VWS V14.01,2013-03-13 22:00:00,
2013-03-13 18:04:00,28.2,18.3,30.24,NNW,336,7.0,11.0,66,0.00,,---,0.00,VWS V14.01,2013-03-13 22:04:00,
2013-03-13 18:09:00,28.5,18.6,30.24,NW,319,7.0,15.0,66,0.00,,---,0.00,VWS V14.01,2013-03-13 22:09:00,
2013-03-13 18:14:00,28.6,18.7,30.24,WNW,300,5.0,15.0,66,0.00,,---,0.00,VWS V14.01,2013-03-13 22:14:00,
2013-03-13 18:19:00,28.5,17.9,30.24,NW,312,10.0,15.0,64,0.00,,---,0.00,VWS V14.01,2013-03-13 22:19:00,
2013-03-13 18:24:00,28.4,18.5,30.24,NW,316,6.0,16.0,66,0.00,,---,0.00,VWS V14.01,2013-03-13 22:24:00,
2013-03-13 18:29:00,28.1,18.2,30.24,West,259,8.0,16.0,66,0.00,,---,0.00,VWS V14.01,2013-03-13 22:29:00,
2013-03-13 18:34:00,28.2,18.0,30.24,NNW,333,9.0,14.0,65,0.00,,---,0.00,VWS V14.01,2013-03-13 22:34:00,
2013-03-13 18:39:00,28.5,18.6,30.24,NNW,333,9.0,14.0,66,0.00,,---,0.00,VWS V14.01,2013-03-13 22:39:00,
2013-03-13 18:44:00,28.5,18.2,30.24,WNW,301,6.0,14.0,65,0.00,,---,0.00,VWS V14.01,2013-03-13 22:44:00,
2013-03-13 18:49:00,28.2,18.3,30.24,North,356,7.0,14.0,66,0.00,,---,0.00,VWS V14.01,2013-03-13 22:49:00,
2013-03-13 18:54:00,28.2,18.3,30.24,WSW,256,1.0,14.0,66,0.00,,---,0.00,VWS V14.01,2013-03-13 22:54:00,
2013-03-13 19:00:00,28.4,17.8,30.25,WNW,298,7.0,14.0,64,0.00,,---,0.00,VWS V14.01,2013-03-13 23:00:00,
2013-03-13 19:05:00,28.3,17.7,30.25,NW,317,9.0,12.0,64,0.00,,---,0.00,VWS V14.01,2013-03-13 23:05:00,
2013-03-13 19:10:00,28.0,17.4,30.25,NW,312,7.0,14.0,64,0.00,,---,0.00,VWS V14.01,2013-03-13 23:10:00,
2013-03-13 19:15:00,27.8,17.6,30.25,WNW,300,5.0,14.0,65,0.00,,---,0.00,VWS V14.01,2013-03-13 23:15:00,
2013-03-13 19:20:00,27.6,17.7,30.25,WNW,296,5.0,14.0,66,0.00,,---,0.00,VWS V14.01,2013-03-13 23:20:00,
2013-03-13 19:25:00,27.4,17.2,30.26,NNW,332,5.0,15.0,65,0.00,,---,0.00,VWS V14.01,2013-03-13 23:25:00,
2013-03-13 19:30:00,27.3,17.5,30.26,WNW,297,3.0,15.0,66,0.00,,---,0.00,VWS V14.01,2013-03-13 23:30:00,
2013-03-13 19:35:00,27.3,17.1,30.26,West,277,5.0,12.0,65,0.00,,---,0.00,VWS V14.01,2013-03-13 23:35:00,
2013-03-13 19:40:00,27.1,16.9,30.25,NW,316,3.0,12.0,65,0.00,,---,0.00,VWS V14.01,2013-03-13 23:40:00,
2013-03-13 19:45:00,26.9,17.4,30.26,NW,309,3.0,12.0,67,0.00,,---,0.00,VWS V14.01,2013-03-13 23:45:00,
2013-03-13 19:50:00,26.8,17.7,30.26,NW,312,5.0,12.0,68,0.00,,---,0.00,VWS V14.01,2013-03-13 23:50:00,
2013-03-13 19:55:00,26.7,17.2,30.26,NW,308,2.0,12.0,67,0.00,,---,0.00,VWS V14.01,2013-03-13 23:55:00,
2013-03-13 20:00:00,26.7,17.2,30.26,NW,304,3.0,12.0,67,0.00,,---,0.00,VWS V14.01,2013-03-14 00:00:00,
2013-03-13 20:05:00,26.6,17.5,30.26,NW,322,2.0,8.0,68,0.00,,---,0.00,VWS V14.01,2013-03-14 00:05:00,
2013-03-13 20:10:00,26.5,17.4,30.27,NW,308,1.0,8.0,68,0.00,,---,0.00,VWS V14.01,2013-03-14 00:10:00,
2013-03-13 20:15:00,26.3,17.2,30.27,WNW,302,3.0,8.0,68,0.00,,---,0.00,VWS V14.01,2013-03-14 00:15:00,
2013-03-13 20:20:00,26.2,17.1,30.27,NW,304,4.0,8.0,68,0.00,,---,0.00,VWS V14.01,2013-03-14 00:20:00,
2013-03-13 20:25:00,26.1,17.0,30.27,NW,315,3.0,8.0,68,0.00,,---,0.00,VWS V14.01,2013-03-14 00:25:00,
2013-03-13 20:30:00,26.1,17.0,30.27,West,281,1.0,8.0,68,0.00,,---,0.00,VWS V14.01,2013-03-14 00:30:00,
2013-03-13 20:35:00,26.1,17.0,30.27,WNW,290,3.0,8.0,68,0.00,,---,0.00,VWS V14.01,2013-03-14 00:35:00,
2013-03-13 20:40:00,26.0,16.6,30.27,West,280,1.0,8.0,67,0.00,,---,0.00,VWS V14.01,2013-03-14 00:40:00,
2013-03-13 20:45:00,25.9,16.8,30.27,WNW,290,2.0,8.0,68,0.00,,---,0.00,VWS V14.01,2013-03-14 00:45:00,
2013-03-13 20:50:00,25.8,16.7,30.27,NNW,329,3.0,8.0,68,0.00,,---,0.00,VWS V14.01,2013-03-14 00:50:00,
2013-03-13 20:55:00,25.8,16.7,30.27,NW,304,6.0,8.0,68,0.00,,---,0.00,VWS V14.01,2013-03-14 00:55:00,
2013-03-13 21:00:00,25.9,16.5,30.28,West,276,2.0,8.0,67,0.00,,---,0.00,VWS V14.01,2013-03-14 01:00:00,
2013-03-13 21:05:00,25.8,16.7,30.28,NW,313,5.0,8.0,68,0.00,,---,0.00,VWS V14.01,2013-03-14 01:05:00,
2013-03-13 21:10:00,25.7,16.3,30.28,WNW,302,0.0,10.0,67,0.00,,---,0.00,VWS V14.01,2013-03-14 01:10:00,
2013-03-13 21:15:00,25.6,16.5,30.28,SSW,198,3.0,10.0,68,0.00,,---,0.00,VWS V14.01,2013-03-14 01:15:00,
2013-03-13 21:20:00,25.5,16.4,30.28,West,277,2.0,10.0,68,0.00,,---,0.00,VWS V14.01,2013-03-14 01:20:00,
2013-03-13 21:25:00,25.4,16.3,30.28,WSW,255,0.0,10.0,68,0.00,,---,0.00,VWS V14.01,2013-03-14 01:25:00,
2013-03-13 21:30:00,25.3,16.2,30.28,WNW,294,2.0,10.0,68,0.00,,---,0.00,VWS V14.01,2013-03-14 01:30:00,
2013-03-13 21:35:00,25.2,16.5,30.28,NNW,327,0.0,8.0,69,0.00,,---,0.00,VWS V14.01,2013-03-14 01:35:00,
2013-03-13 21:40:00,25.0,16.3,30.28,NW,316,2.0,8.0,69,0.00,,---,0.00,VWS V14.01,2013-03-14 01:40:00,
2013-03-13 21:45:00,25.0,16.3,30.28,SW,214,0.0,8.0,69,0.00,,---,0.00,VWS V14.01,2013-03-14 01:45:00,
2013-03-13 21:50:00,24.9,16.2,30.28,West,277,2.0,8.0,69,0.00,,---,0.00,VWS V14.01,2013-03-14 01:50:00,
2013-03-13 21:55:00,24.9,15.9,30.28,NW,308,3.0,8.0,68,0.00,,---,0.00,VWS V14.01,2013-03-14 01:55:00,
2013-03-13 22:00:00,24.8,15.8,30.28,NW,319,0.0,8.0,68,0.00,,---,0.00,VWS V14.01,2013-03-14 02:00:00,
2013-03-13 22:05:00,24.7,16.0,30.28,WNW,298,2.0,4.0,69,0.00,,---,0.00,VWS V14.01,2013-03-14 02:05:00,
2013-03-13 22:10:00,24.7,16.0,30.28,West,262,1.0,4.0,69,0.00,,---,0.00,VWS V14.01,2013-03-14 02:10:00,
2013-03-13 22:15:00,24.6,15.9,30.29,West,276,1.0,4.0,69,0.00,,---,0.00,VWS V14.01,2013-03-14 02:15:00,
2013-03-13 22:20:00,24.5,15.8,30.29,NW,311,1.0,4.0,69,0.00,,---,0.00,VWS V14.01,2013-03-14 02:20:00,
2013-03-13 22:25:00,24.3,15.9,30.29,WSW,255,0.0,4.0,70,0.00,,---,0.00,VWS V14.01,2013-03-14 02:25:00,
2013-03-13 22:30:00,24.1,16.1,30.29,West,269,0.0,2.0,71,0.00,,---,0.00,VWS V14.01,2013-03-14 02:30:00,
2013-03-13 22:35:00,24.0,16.3,30.29,NW,308,0.0,3.0,72,0.00,,---,0.00,VWS V14.01,2013-03-14 02:35:00,
2013-03-13 22:40:00,24.0,16.3,30.29,WSW,245,0.0,3.0,72,0.00,,---,0.00,VWS V14.01,2013-03-14 02:40:00,
2013-03-13 22:46:00,23.9,16.5,30.29,WSW,250,0.0,3.0,73,0.00,,---,0.00,VWS V14.01,2013-03-14 02:46:00,
2013-03-13 22:51:00,23.8,16.4,30.29,WSW,250,1.0,3.0,73,0.00,,---,0.00,VWS V14.01,2013-03-14 02:51:00,
2013-03-13 22:56:00,23.7,16.3,30.29,SW,231,0.0,3.0,73,0.00,,---,0.00,VWS V14.01,2013-03-14 02:56:00,
2013-03-13 23:01:00,23.6,16.5,30.29,West,280,0.0,1.0,74,0.00,,---,0.00,VWS V14.01,2013-03-14 03:01:00,
2013-03-13 23:06:00,23.5,16.5,30.30,SW,236,0.0,2.0,74,0.00,,---,0.00,VWS V14.01,2013-03-14 03:06:00,
2013-03-13 23:11:00,23.6,16.5,30.30,WSW,243,0.0,2.0,74,0.00,,---,0.00,VWS V14.01,2013-03-14 03:11:00,
2013-03-13 23:16:00,23.5,16.8,30.30,WSW,252,2.0,2.0,75,0.00,,---,0.00,VWS V14.01,2013-03-14 03:16:00,
2013-03-13 23:22:00,23.5,16.8,30.30,WSW,245,0.0,4.0,75,0.00,,---,0.00,VWS V14.01,2013-03-14 03:22:00,
2013-03-13 23:27:00,23.3,16.6,30.30,SSW,207,1.0,4.0,75,0.00,,---,0.00,VWS V14.01,2013-03-14 03:27:00,
2013-03-13 23:30:00,23.3,16.9,30.30,WSW,240,1.0,4.0,76,0.00,,---,0.00,VWS V14.01,2013-03-14 03:30:00,
2013-03-13 23:32:00,23.3,16.9,30.30,West,262,0.0,1.0,76,0.00,,---,0.00,VWS V14.01,2013-03-14 03:32:00,
2013-03-13 23:37:00,23.2,16.5,30.30,West,263,0.0,3.0,75,0.00,,---,0.00,VWS V14.01,2013-03-14 03:37:00,
2013-03-13 23:42:00,23.1,16.4,30.30,WNW,286,0.0,3.0,75,0.00,,---,0.00,VWS V14.01,2013-03-14 03:42:00,
2013-03-13 23:47:00,22.9,16.5,30.30,WNW,294,0.0,3.0,76,0.00,,---,0.00,VWS V14.01,2013-03-14 03:47:00,
2013-03-13 23:52:00,22.9,16.5,30.30,WNW,302,1.0,3.0,76,0.00,,---,0.00,VWS V14.01,2013-03-14 03:52:00,
2013-03-13 23:57:00,23.1,16.7,30.30,West,265,2.0,4.0,76,0.00,,---,0.00,VWS V14.01,2013-03-14 03:57:00,